CW4588 Weather Reports


time (UTC)temp
C
wind
direction
speed
KPH
gust
KPH
rain 1hr
cm
rain 24hr
cm
rain mn
cm
humidity
%
barometer
mb
20260507114601 12 190 8.0 0.0 0.00 0.00 0.00 41 1011.5
20260507114026 12 209 9.7 0.0 0.00 0.00 0.00 41 1011.4
20260507113542 12 220 11.3 0.0 0.00 0.00 0.00 41 1011.4
20260507113028 12 163 9.7 0.0 0.00 0.00 0.00 41 1011.4
20260507112543 11 190 8.0 0.0 0.00 0.00 0.00 46 1011.4
20260507112022 11 187 9.7 0.0 0.00 0.00 0.00 39 1011.4
20260507111601 11 187 9.7 0.0 0.00 0.00 0.00 36 1011.4
20260507111026 11 187 6.4 0.0 0.00 0.00 0.00 39 1011.3
20260507110535 11 192 6.4 0.0 0.00 0.00 0.00 39 1011.3
20260507110050 10 206 6.4 0.0 0.00 0.00 0.00 35 1011.3
20260507105537 10 182 6.4 0.0 0.00 0.00 0.00 36 1011.3
20260507105023 11 180 4.8 0.0 0.00 0.00 0.00 35 1011.3
20260507104530 10 182 6.4 0.0 0.00 0.00 0.00 37 1011.3
20260507104021 10 178 6.4 0.0 0.00 0.00 0.00 33 1011.3
20260507103539 10 152 4.8 0.0 0.00 0.00 0.00 33 1011.3
20260507103028 10 156 6.4 0.0 0.00 0.00 0.00 35 1011.3
20260507102539 10 166 6.4 0.0 0.00 0.00 0.00 34 1011.3
20260507102029 10 186 6.4 0.0 0.00 0.00 0.00 35 1011.3
20260507101529 10 199 4.8 0.0 0.00 0.00 0.00 32 1011.3
20260507101100 10 156 4.8 0.0 0.00 0.00 0.00 36 1011.3
20260507100529 10 158 4.8 0.0 0.00 0.00 0.00 34 1011.3
20260507100029 10 189 4.8 0.0 0.00 0.00 0.00 35 1011.3
20260507095600 10 158 4.8 0.0 0.00 0.00 0.00 35 1011.3
20260507095027 10 226 6.4 0.0 0.00 0.00 0.00 32 1011.3
20260507094544 10 163 4.8 0.0 0.00 0.00 0.00 35 1011.3
20260507094028 11 179 4.8 0.0 0.00 0.00 0.00 29 1011.3
20260507093608 11 172 4.8 0.0 0.00 0.00 0.00 29 1011.3
20260507093038 11 145 4.8 0.0 0.00 0.00 0.00 31 1011.3
20260507092525 11 137 4.8 0.0 0.00 0.00 0.00 28 1011.5
20260507092036 11 161 4.8 0.0 0.00 0.00 0.00 28 1011.5
20260507091530 11 138 6.4 0.0 0.00 0.00 0.00 27 1011.6
20260507091038 11 135 4.8 0.0 0.00 0.00 0.00 27 1011.6
20260507090544 11 158 6.4 0.0 0.00 0.00 0.00 25 1011.6
20260507090023 11 172 6.4 0.0 0.00 0.00 0.00 29 1011.7
20260507085523 11 178 4.8 0.0 0.00 0.00 0.00 27 1011.7
20260507085028 10 104 4.8 0.0 0.00 0.00 0.00 28 1011.7
20260507084529 10 146 4.8 0.0 0.00 0.00 0.00 33 1011.8
20260507084020 10 148 3.2 0.0 0.00 0.00 0.00 30 1011.8
20260507083528 10 146 4.8 0.0 0.00 0.00 0.00 29 1011.8
20260507083037 10 151 6.4 0.0 0.00 0.00 0.00 30 1011.8
20260507082535 10 179 6.4 0.0 0.00 0.00 0.00 29 1011.8
20260507082024 10 207 4.8 0.0 0.00 0.00 0.00 27 1011.8
20260507081604 10 166 4.8 0.0 0.00 0.00 0.00 27 1011.8
20260507081032 10 166 4.8 0.0 0.00 0.00 0.00 27 1011.7
20260507080520 10 130 6.4 0.0 0.00 0.00 0.00 26 1011.7
20260507080029 10 52 6.4 0.0 0.00 0.00 0.00 24 1011.7
20260507075542 10 179 4.8 0.0 0.00 0.00 0.00 28 1011.7
20260507075047 10 110 4.8 0.0 0.00 0.00 0.00 28 1011.7
20260507074533 9 163 4.8 0.0 0.00 0.00 0.00 29 1011.7
20260507074030 9 138 4.8 0.0 0.00 0.00 0.00 29 1011.7
20260507073538 8 139 6.4 0.0 0.00 0.00 0.00 33 1011.7
20260507073022 8 138 6.4 0.0 0.00 0.00 0.00 30 1011.8
20260507072540 8 94 4.8 0.0 0.00 0.00 0.00 31 1011.8
20260507072027 8 178 6.4 0.0 0.00 0.00 0.00 35 1011.8
20260507071536 8 128 6.4 0.0 0.00 0.00 0.00 32 1011.8
20260507071025 8 103 4.8 0.0 0.00 0.00 0.00 33 1011.9
20260507070542 8 130 4.8 0.0 0.00 0.00 0.00 34 1011.9
20260507070030 8 138 4.8 0.0 0.00 0.00 0.00 35 1011.9
20260507065538 8 138 6.4 0.0 0.00 0.00 0.00 33 1011.9
20260507065100 8 141 6.4 0.0 0.00 0.00 0.00 35 1011.9
20260507064524 8 128 4.8 0.0 0.00 0.00 0.00 32 1011.9
20260507064104 9 134 3.2 0.0 0.00 0.00 0.00 35 1011.9
20260507063528 8 132 3.2 0.0 0.00 0.00 0.00 37 1011.9
20260507063037 8 122 3.2 0.0 0.00 0.00 0.00 39 1011.9
20260507062520 8 148 3.2 0.0 0.00 0.00 0.00 39 1011.8
20260507062036 8 148 1.6 0.0 0.00 0.00 0.00 42 1011.8
20260507061541 8 148 3.2 0.0 0.00 0.00 0.00 41 1011.6
20260507061027 7 148 3.2 0.0 0.00 0.00 0.00 40 1011.6
20260507060545 7 148 1.6 0.0 0.00 0.00 0.00 44 1011.6
20260507060025 7 148 3.2 0.0 0.00 0.00 0.00 46 1011.6
20260507055530 7 148 3.2 0.0 0.00 0.00 0.00 41 1011.6
20260507055048 7 149 3.2 0.0 0.00 0.00 0.00 43 1011.6
20260507054601 7 149 3.2 0.0 0.00 0.00 0.00 44 1011.6
20260507054059 7 149 4.8 0.0 0.00 0.00 0.00 43 1011.7
20260507053523 7 149 3.2 0.0 0.00 0.00 0.00 45 1011.7
20260507053026 6 138 3.2 0.0 0.00 0.00 0.00 45 1011.5
20260507052540 6 138 3.2 0.0 0.00 0.00 0.00 48 1011.5
20260507052027 6 138 3.2 0.0 0.00 0.00 0.00 49 1011.5
20260507051534 6 138 3.2 0.0 0.00 0.00 0.00 50 1011.5
20260507051050 6 138 4.8 0.0 0.00 0.00 0.00 50 1011.5
20260507050520 5 138 4.8 0.0 0.00 0.00 0.00 51 1011.5
20260507050055 5 134 3.2 0.0 0.00 0.00 0.00 53 1011.5
20260507045520 5 132 3.2 0.0 0.00 0.00 0.00 53 1011.6
20260507045029 4 135 3.2 0.0 0.00 0.00 0.00 59 1011.6
20260507044548 4 134 3.2 0.0 0.00 0.00 0.00 58 1011.6
20260507044032 3 138 3.2 0.0 0.00 0.00 0.00 62 1011.6
20260507043538 3 138 3.2 0.0 0.00 0.00 0.00 60 1011.6
20260507043039 2 144 3.2 0.0 0.00 0.00 0.00 61 1011.6
20260507042523 2 149 3.2 0.0 0.00 0.00 0.00 64 1011.5
20260507042032 2 186 1.6 0.0 0.00 0.00 0.00 66 1011.5
20260507041530 1 187 1.6 0.0 0.00 0.00 0.00 67 1011.5
20260507041037 1 187 3.2 0.0 0.00 0.00 0.00 69 1011.5
20260507040521 1 187 3.2 0.0 0.00 0.00 0.00 70 1011.5
20260507040036 0 187 3.2 0.0 0.00 0.00 0.00 72 1011.5
20260507035540 0 194 3.2 0.0 0.00 0.00 0.00 75 1011.6
20260507035028 0 194 3.2 0.0 0.00 0.00 0.00 77 1011.6
20260507034547 0 194 3.2 0.0 0.00 0.00 0.00 80 1011.6
20260507034034 -1 194 3.2 0.0 0.00 0.00 0.00 83 1011.7
20260507033519 -2 199 1.6 0.0 0.00 0.00 0.00 87 1011.7
20260507033028 -2 199 1.6 0.0 0.00 0.00 0.00 88 1011.8
20260507032535 -3 199 0.0 0.0 0.00 0.00 0.00 88 1011.8
20260507032022 -3 199 0.0 0.0 0.00 0.00 0.00 87 1011.8
20260507031540 -3 199 0.0 0.0 0.00 0.00 0.00 87 1011.8
20260507031025 -3 199 0.0 0.0 0.00 0.00 0.00 87 1011.6
20260507030528 -3 199 0.0 0.0 0.00 0.00 0.00 87 1011.6
20260507030030 -3 199 0.0 0.0 0.00 0.00 0.00 87 1011.6
20260507025522 -3 199 0.0 0.0 0.00 0.00 0.00 87 1011.6
20260507025026 -3 199 0.0 0.0 0.00 0.00 0.00 87 1011.6
20260507024604 -3 199 0.0 0.0 0.00 0.00 0.00 86 1011.6
20260507024030 -3 199 0.0 0.0 0.00 0.00 0.00 86 1011.6
20260507023539 -3 199 0.0 0.0 0.00 0.00 0.00 86 1011.6
20260507023059 -3 199 0.0 0.0 0.00 0.00 0.00 86 1011.6
20260507022524 -3 199 0.0 0.0 0.00 0.00 0.00 86 1011.5
20260507022044 -3 199 0.0 0.0 0.00 0.00 0.00 86 1011.5
20260507021533 -3 199 0.0 0.0 0.00 0.00 0.00 86 1011.5
20260507021021 -3 199 0.0 0.0 0.00 0.00 0.00 86 1011.5
20260507020528 -3 199 0.0 0.0 0.00 0.00 0.00 85 1011.5
20260507020042 -3 199 0.0 0.0 0.00 0.00 0.00 85 1011.5
20260507015530 -3 199 0.0 0.0 0.00 0.00 0.00 85 1011.4
20260507015059 -3 199 0.0 0.0 0.00 0.00 0.00 85 1011.4
20260507014529 -3 199 0.0 0.0 0.00 0.00 0.00 85 1011.4
20260507014024 -3 199 0.0 0.0 0.00 0.00 0.00 84 1011.4
20260507013532 -3 199 0.0 0.0 0.00 0.00 0.00 85 1011.4
20260507013039 -3 199 0.0 0.0 0.00 0.00 0.00 84 1011.4
20260507012536 -3 199 0.0 0.0 0.00 0.00 0.00 85 1011.4
20260507012043 -2 199 0.0 0.0 0.00 0.00 0.00 85 1011.4
20260507011538 -2 199 0.0 0.0 0.00 0.00 0.00 85 1011.4
20260507011026 -2 199 0.0 0.0 0.00 0.00 0.00 85 1011.4
20260507010535 -2 199 0.0 0.0 0.00 0.00 0.00 85 1011.4
20260507010026 -2 199 0.0 0.0 0.00 0.00 0.00 84 1011.3
20260507005541 -2 199 0.0 0.0 0.00 0.00 0.00 84 1011.3
20260507005028 -2 199 0.0 0.0 0.00 0.00 0.00 84 1011.3
20260507004550 -2 199 0.0 0.0 0.00 0.00 0.00 84 1011.3
20260507004038 -2 199 0.0 0.0 0.00 0.00 0.00 84 1011.3
20260507003525 -2 199 0.0 0.0 0.00 0.00 0.00 84 1011.3
20260507003029 -2 199 0.0 0.0 0.00 0.00 0.00 84 1011.3
20260507002520 -2 199 0.0 0.0 0.00 0.00 0.00 84 1011.3
20260507002058 -2 199 0.0 0.0 0.00 0.00 0.00 83 1011.3
20260507001559 -2 199 0.0 0.0 0.00 0.00 0.00 83 1011.3
20260507001025 -2 199 0.0 0.0 0.00 0.00 0.00 83 1011.3
20260507000534 -2 199 0.0 0.0 0.00 0.00 0.00 83 1011.3
20260507000040 -2 199 0.0 0.0 0.00 0.00 0.00 82 1011.3
20260506235536 -2 199 0.0 0.0 0.00 0.00 0.00 82 1011.3
20260506235023 -2 199 0.0 0.0 0.00 0.00 0.00 81 1011.3
20260506234604 -2 199 0.0 0.0 0.00 0.00 0.00 80 1011.3
20260506234035 -2 199 0.0 0.0 0.00 0.00 0.00 80 1011.3
20260506233520 -2 199 0.0 0.0 0.00 0.00 0.00 78 1011.3
20260506233048 -2 199 0.0 0.0 0.00 0.00 0.00 78 1011.2
20260506232526 -1 199 0.0 0.0 0.00 0.00 0.00 77 1011.2
20260506232033 -1 199 0.0 0.0 0.00 0.00 0.00 78 1011.2
20260506231521 -1 199 0.0 0.0 0.00 0.00 0.00 77 1011.1
20260506231036 -1 199 0.0 0.0 0.00 0.00 0.00 77 1011.1
20260506230523 -1 199 0.0 0.0 0.00 0.00 0.00 76 1011.1
20260506230028 -1 199 0.0 0.0 0.00 0.00 0.00 76 1011.1
20260506225541 -1 199 0.0 0.0 0.00 0.00 0.00 75 1011.1
20260506225047 -1 199 0.0 0.0 0.00 0.00 0.00 74 1011.1
20260506224544 -1 199 0.0 0.0 0.00 0.00 0.00 74 1011.1
20260506224031 0 199 0.0 0.0 0.00 0.00 0.00 73 1011.0
20260506223537 0 199 0.0 0.0 0.00 0.00 0.00 73 1011.0
20260506223056 0 199 0.0 0.0 0.00 0.00 0.00 72 1011.0
20260506222544 0 199 0.0 0.0 0.00 0.00 0.00 72 1010.8
20260506222037 0 199 0.0 0.0 0.00 0.00 0.00 72 1010.8
20260506221528 0 199 0.0 0.0 0.00 0.00 0.00 72 1010.8
20260506221035 0 199 0.0 0.0 0.00 0.00 0.00 72 1010.8
20260506220525 0 199 1.6 0.0 0.00 0.00 0.00 72 1010.8
20260506220044 0 199 1.6 0.0 0.00 0.00 0.00 72 1010.8
20260506215529 0 199 3.2 0.0 0.00 0.00 0.00 73 1010.6
20260506215049 0 199 3.2 0.0 0.00 0.00 0.00 73 1010.6
20260506214530 0 199 3.2 0.0 0.00 0.00 0.00 74 1010.5
20260506214022 0 199 3.2 0.0 0.00 0.00 0.00 75 1010.5
20260506213530 0 199 1.6 0.0 0.00 0.00 0.00 76 1010.5
20260506213042 0 199 0.0 0.0 0.00 0.00 0.00 76 1010.5
20260506212530 0 199 0.0 0.0 0.00 0.00 0.00 75 1010.3
20260506212047 0 199 0.0 0.0 0.00 0.00 0.00 75 1010.3
20260506211531 0 199 0.0 0.0 0.00 0.00 0.00 75 1010.3
20260506211023 0 199 0.0 0.0 0.00 0.00 0.00 75 1010.3
20260506210532 0 199 0.0 0.0 0.00 0.00 0.00 74 1010.3
20260506210030 0 199 0.0 0.0 0.00 0.00 0.00 74 1010.2
20260506205554 0 199 0.0 0.0 0.00 0.00 0.00 74 1010.2
20260506205022 0 199 0.0 0.0 0.00 0.00 0.00 73 1010.2
20260506204539 0 199 0.0 0.0 0.00 0.00 0.00 73 1010.2
20260506204024 0 199 0.0 0.0 0.00 0.00 0.00 72 1010.2
20260506203540 0 199 0.0 0.0 0.00 0.00 0.00 71 1010.2
20260506203027 0 199 0.0 0.0 0.00 0.00 0.00 71 1010.1
20260506202546 0 199 0.0 0.0 0.00 0.00 0.00 70 1010.1
20260506202036 1 199 0.0 0.0 0.00 0.00 0.00 70 1010.1
20260506201524 1 199 0.0 0.0 0.00 0.00 0.00 70 1010.0
20260506201038 1 199 0.0 0.0 0.00 0.00 0.00 68 1010.0
20260506200543 1 199 0.0 0.0 0.00 0.00 0.00 68 1010.0
20260506200046 1 199 0.0 0.0 0.00 0.00 0.00 67 1010.0
20260506195537 2 199 0.0 0.0 0.00 0.00 0.00 66 1009.8
20260506195027 2 199 0.0 0.0 0.00 0.00 0.00 66 1009.8
20260506194606 2 199 0.0 0.0 0.00 0.00 0.00 64 1009.8
20260506194033 2 199 0.0 0.0 0.00 0.00 0.00 64 1009.8
20260506193520 2 199 0.0 0.0 0.00 0.00 0.00 63 1009.8
20260506193036 2 199 0.0 0.0 0.00 0.00 0.00 62 1009.8
20260506192522 3 199 0.0 0.0 0.00 0.00 0.00 62 1009.8
20260506192041 3 199 0.0 0.0 0.00 0.00 0.00 61 1009.8
20260506191531 3 199 0.0 0.0 0.00 0.00 0.00 60 1009.7
20260506191020 3 199 0.0 0.0 0.00 0.00 0.00 60 1009.7
20260506190555 3 199 0.0 0.0 0.00 0.00 0.00 60 1009.7
20260506190026 4 199 0.0 0.0 0.00 0.00 0.00 59 1009.7
20260506185521 4 199 0.0 0.0 0.00 0.00 0.00 59 1009.7
20260506185028 4 199 1.6 0.0 0.00 0.00 0.00 59 1009.7
20260506184535 5 199 1.6 0.0 0.00 0.00 0.00 58 1009.7
20260506184032 5 199 1.6 0.0 0.00 0.00 0.00 58 1009.6
20260506183538 5 196 1.6 0.0 0.00 0.00 0.00 58 1009.6
20260506183049 5 194 1.6 0.0 0.00 0.00 0.00 57 1009.3
20260506182527 5 194 1.6 0.0 0.00 0.00 0.00 57 1009.3
20260506182034 6 194 1.6 0.0 0.00 0.00 0.00 55 1009.3
20260506181530 6 196 1.6 0.0 0.00 0.00 0.00 55 1009.2
20260506181039 6 196 1.6 0.0 0.00 0.00 0.00 55 1009.2
20260506180600 6 196 1.6 0.0 0.00 0.00 0.00 54 1009.2
20260506180024 6 194 1.6 0.0 0.00 0.00 0.00 54 1009.2
20260506175544 6 194 1.6 0.0 0.00 0.00 0.00 53 1009.2
20260506175032 6 190 1.6 0.0 0.00 0.00 0.00 53 1009.2
20260506174539 7 190 1.6 0.0 0.00 0.00 0.00 53 1009.2
20260506174028 7 262 3.2 0.0 0.00 0.00 0.00 52 1008.9
20260506173547 7 231 3.2 0.0 0.00 0.00 0.00 50 1008.9
20260506173056 7 227 3.2 0.0 0.00 0.00 0.00 51 1008.9
20260506172532 7 240 3.2 0.0 0.00 0.00 0.00 49 1008.7
20260506172020 7 197 1.6 0.0 0.00 0.00 0.00 49 1008.7
20260506171524 7 207 3.2 0.0 0.00 0.00 0.00 50 1008.6
20260506171029 8 285 3.2 0.0 0.00 0.00 0.00 48 1008.6
20260506170520 8 235 1.6 0.0 0.00 0.00 0.00 48 1008.6
20260506170038 8 194 1.6 0.0 0.00 0.00 0.00 48 1008.6
20260506165523 8 183 1.6 0.0 0.00 0.00 0.00 46 1008.7
20260506165051 8 183 1.6 0.0 0.00 0.00 0.00 47 1008.7
20260506164529 8 227 1.6 0.0 0.00 0.00 0.00 46 1008.5
20260506164017 8 227 3.2 0.0 0.00 0.00 0.00 46 1008.5
20260506163601 9 179 3.2 0.0 0.00 0.00 0.00 45 1008.5
20260506163030 9 228 4.8 0.0 0.00 0.00 0.00 44 1008.4
20260506162521 9 170 4.8 0.0 0.00 0.00 0.00 44 1008.4
20260506162042 9 272 4.8 0.0 0.00 0.00 0.00 43 1008.4
20260506161530 9 248 1.6 0.0 0.00 0.00 0.00 46 1008.4
20260506161040 9 203 1.6 0.0 0.00 0.00 0.00 45 1008.4
20260506160559 9 230 1.6 0.0 0.00 0.00 0.00 45 1008.4
20260506160028 9 230 1.6 0.0 0.00 0.00 0.00 45 1008.3
20260506155544 10 268 3.2 0.0 0.00 0.00 0.00 44 1008.3
20260506155030 10 190 3.2 0.0 0.00 0.00 0.00 44 1008.3
20260506154536 10 202 3.2 0.0 0.00 0.00 0.00 45 1008.3
20260506154024 9 223 3.2 0.0 0.00 0.00 0.00 47 1008.3
20260506153524 9 295 4.8 0.0 0.00 0.00 0.00 46 1008.3
20260506153039 8 214 6.4 0.0 0.00 0.00 0.00 47 1008.3
20260506152543 8 199 4.8 0.0 0.00 0.00 0.00 47 1008.2
20260506152036 8 227 4.8 0.0 0.00 0.00 0.00 49 1008.2
20260506151520 8 183 1.6 0.0 0.00 0.00 0.00 48 1008.3
20260506151058 8 190 3.2 0.0 0.00 0.00 0.00 49 1008.3
20260506150525 8 189 6.4 0.0 0.00 0.00 0.00 47 1008.3
20260506145529 8 176 3.2 0.0 0.00 0.00 0.00 49 1008.2
20260506145032 8 166 3.2 0.0 0.00 0.00 0.00 49 1008.2
20260506144531 8 242 1.6 0.0 0.00 0.00 0.00 49 1008.2
20260506144021 8 292 3.2 0.0 0.00 0.00 0.00 50 1008.2
20260506143530 8 214 6.4 0.0 0.00 0.00 0.00 50 1008.2
20260506143048 8 275 8.0 0.0 0.00 0.00 0.00 47 1008.2
20260506142534 8 196 6.4 0.0 0.00 0.00 0.00 49 1008.2
20260506142036 8 233 4.8 0.0 0.00 0.00 0.00 46 1008.2
20260506141524 8 211 4.8 0.0 0.00 0.00 0.00 47 1008.2
20260506141028 8 231 4.8 0.0 0.00 0.00 0.00 46 1008.2
20260506140528 8 248 4.8 0.0 0.00 0.00 0.00 47 1008.2
20260506140035 8 168 4.8 0.0 0.00 0.00 0.00 49 1008.2
20260506135521 8 186 3.2 0.0 0.00 0.00 0.00 50 1008.2
20260506135041 8 209 3.2 0.0 0.00 0.00 0.00 48 1008.2
20260506134552 8 209 4.8 0.0 0.00 0.00 0.00 50 1008.2
20260506134027 8 218 4.8 0.0 0.00 0.00 0.00 48 1008.2
20260506133526 8 245 6.4 0.0 0.00 0.00 0.00 49 1008.2
20260506133027 8 214 8.0 0.0 0.00 0.00 0.00 49 1008.1
20260506132534 8 220 8.0 0.0 0.00 0.00 0.00 49 1008.1
20260506132045 8 244 8.0 0.0 0.00 0.00 0.00 49 1008.1
20260506131602 8 275 8.0 0.0 0.00 0.00 0.00 48 1008.1
20260506131029 8 240 8.0 0.0 0.00 0.00 0.00 48 1008.0
20260506130539 8 183 8.0 0.0 0.00 0.00 0.00 50 1008.0
20260506130023 8 224 8.0 0.0 0.00 0.00 0.00 51 1007.8
20260506125533 8 217 6.4 0.0 0.00 0.00 0.00 51 1007.8
20260506125021 8 206 6.4 0.0 0.00 0.00 0.00 50 1007.8
20260506124540 8 289 6.4 0.0 0.00 0.00 0.00 48 1007.9
20260506124026 8 281 6.4 0.0 0.00 0.00 0.00 50 1007.8
20260506123535 8 248 8.0 0.0 0.00 0.00 0.00 49 1007.8
20260506123025 8 211 8.0 0.0 0.00 0.00 0.00 49 1007.8
20260506122540 8 211 6.4 0.0 0.00 0.00 0.00 50 1007.8
20260506122032 8 233 6.4 0.0 0.00 0.00 0.00 51 1007.8
20260506121521 8 214 6.4 0.0 0.00 0.00 0.00 47 1007.6
20260506121032 8 194 8.0 0.0 0.00 0.00 0.00 48 1007.6
20260506120551 9 218 8.0 0.0 0.00 0.00 0.00 48 1007.6
20260506120037 9 245 6.4 0.0 0.00 0.00 0.00 46 1007.6
20260506115523 9 235 6.4 0.0 0.00 0.00 0.00 46 1007.4
20260506115038 10 255 6.4 0.0 0.00 0.00 0.00 44 1007.4